Regional Weather Roundup
Issued by NWS Cleveland, OH

Home | Current Version | Previous Version | Graphics & Text | Print | Product List | Glossary On
Versions: 1 2 3 4 5 6 7 8 9 10 11 12 13 14 15 16 17 18 19 20 21 22 23 24 25 26 27 28 29 30 31 32 33 34 35 36 37 38 39 40 41 42 43 44 45 46 47 48 49 50
000
ASUS41 KCLE 240912
RWRCLE
OHIO REGIONAL WEATHER ROUNDUP
NATIONAL WEATHER SERVICE WILMINGTON, OH
500 AM EDT SUN SEP 24 2017

NOTE: "FAIR" INDICATES FEW OR NO CLOUDS BELOW 12,000 FEET WITH NO
SIGNIFICANT WEATHER AND/OR OBSTRUCTIONS TO VISIBILITY.

OHZ001>008-015>018-024>027-034-035-043-044-241000-
   NORTHWEST OHIO

CITY           SKY/WX    TMP DP  RH WIND       PRES   REMARKS
DEFIANCE       FAIR      62  59  90 CALM      30.13S
FINDLAY        FAIR      67  58  72 CALM      30.13R
TOLEDO EXPRESS FAIR      64  63  96 CALM      30.13S
TOLEDO EXEC    FAIR      66  60  81 N3        30.14R
LIMA           FAIR      63  60  90 CALM      30.13S
$$

OHZ009>014-019>023-028>033-038-089-241000-
   NORTHEAST OHIO

CITY           SKY/WX    TMP DP  RH WIND       PRES   REMARKS
CLE-HOPKINS    FAIR      67  60  78 CALM      30.16R
CLE-LAKEFRONT  FAIR      70  61  73 CALM      30.13R
CUY CO. ARPT   NOT AVBL
LORAIN-ELYRIA  FAIR      58  53  84 CALM      30.15R
ASHTABULA      FAIR      61  60  97 CALM      30.16F
AKRON-CANTON   FAIR      67  60  78 CALM      30.16R
WOOSTER        FAIR      56  55  97 CALM      30.16S
MANSFIELD      FAIR      63  60  90 S5        30.16S
YOUNGSTOWN     FAIR      61  60  97 E3        30.16R
$$

OHZ042-051>053-060>062-070>072-077>081-241000-
  SOUTHWEST OHIO

CITY           SKY/WX    TMP DP  RH WIND       PRES   REMARKS
CINC-COVINGTON FAIR      69  63  81 E3        30.09S
CINC-LUNKEN    FAIR      61  61 100 NE3       30.10S FOG
HAMILTON       FAIR      60  59  96 CALM      30.11S FOG
DAYTON         FAIR      67  57  70 E3        30.13S
WRIGHT-PAT AFB NOT AVBL
DAYTON GENERAL FAIR      62  58  86 NE9       30.11R
WILMINGTON     FAIR      60  58  92 NE8       30.11S
$$

OHZ036-037-039>041-045>050-054>059-063>069-073>076-082>088-241000-
  CENTRAL AND SOUTHEAST OHIO

CITY           SKY/WX    TMP DP  RH WIND       PRES   REMARKS
COLUMBUS       FAIR      63  60  90 N3        30.12S
OSU AIRPORT    FAIR      64  61  90 E3        30.13S
BOLTON FIELD   FAIR      63  59  88 NE5       30.13S
RICKENBACK AFB FAIR      60  59  95 NE6       30.11S
NEWARK         FAIR      59  57  93 CALM      30.14R
MARION         FAIR      63  58  83 S3        30.14S
LANCASTER      FAIR      54  53  97 CALM      30.13S
ZANESVILLE     FAIR      60  57  89 CALM      30.14R
NEW PHILLY     FAIR      60  59  96 CALM      30.15S
$$




USA.gov is the U.S. government's official web portal to all federal, state and local government web resources and services.